logo tempoitalia

Diretta Meteo Napoli-Capodichino, Italiasabato 21 maggio ore 10:50

Mappa
Sereno 23 °C Sereno 24 Ore: T.min 16 T.max 25
Ponente Sud Km/h 7.4 Punto di rugiada: 13 °C Umidità: 53% Visibilità: 10 Km
Il sole sorge alle: 05:38 Il sole tramonta alle: 20:20
21 Maggio 2022 10:50 tempo osservato: Sereno Sereno 23 53 1022 vento: Nord S 7.4
21 Maggio 2022 10:20 tempo osservato: Sereno Sereno 23 56 1022 vento: Nord SO 9.3
21 Maggio 2022 09:50 tempo osservato: Sereno Sereno 22 60 1022 vento: Nord SO 9.3
21 Maggio 2022 09:20 tempo osservato: Sereno Sereno 21 64 1023 vento: Nord SO 9.3
21 Maggio 2022 08:50 tempo osservato: Sereno Sereno 21 64 1023 vento: Nord SO 7.4
21 Maggio 2022 08:20 tempo osservato: Sereno Sereno 21 64 1022 vento: Nord N 7.4
21 Maggio 2022 07:50 tempo osservato: Sereno Sereno 20 68 1022 vento: Nord N 1.8
21 Maggio 2022 07:20 tempo osservato: Sereno Sereno 19 68 1023 vento: Nord N 3.7
21 Maggio 2022 06:50 tempo osservato: Sereno Sereno 18 67 1023 vento: Nord N 1.8
21 Maggio 2022 06:20 tempo osservato: Sereno Sereno 17 72 1023 vento: Nord N 3.7
21 Maggio 2022 05:50 tempo osservato: Sereno Sereno 17 77 1023 vento: Nord N 5.5
21 Maggio 2022 05:20 tempo osservato: Sereno Sereno 17 82 1023 vento: Nord N 3.7
21 Maggio 2022 04:50 tempo osservato: Sereno Sereno 17 82 1023 vento: Nord N 3.7
21 Maggio 2022 04:20 tempo osservato: Sereno Sereno 17 82 1023 vento: Nord N 3.7
21 Maggio 2022 03:50 tempo osservato: Sereno Sereno 16 77 1023 vento: Nord N 3.7
21 Maggio 2022 03:20 tempo osservato: Sereno Sereno 17 72 1023 vento: Nord N 1.8
21 Maggio 2022 02:50 tempo osservato: Sereno Sereno 18 63 1023 vento: Nord N 3.7
21 Maggio 2022 02:20 tempo osservato: Sereno Sereno 18 59 1024 vento: Nord N 3.7
21 Maggio 2022 01:50 tempo osservato: Sereno Sereno 18 59 1024 vento: Nord N 3.7
21 Maggio 2022 01:20 tempo osservato: Sereno Sereno 19 63 1024 vento: Nord N 3.7
21 Maggio 2022 00:50 tempo osservato: Sereno Sereno 20 52 1024 vento: Nord N 5.5
21 Maggio 2022 00:20 tempo osservato: Sereno Sereno 19 59 1025 vento: Nord O 7.4
20 Maggio 2022 23:50 tempo osservato: Sereno Sereno 19 55 1025 vento: Nord O 9.3
20 Maggio 2022 23:20 tempo osservato: Sereno Sereno 20 49 1025 vento: Nord NO 9.3
20 Maggio 2022 22:50 tempo osservato: Sereno Sereno 19 55 1025 vento: Nord O 7.4
20 Maggio 2022 22:20 tempo osservato: Sereno Sereno 20 52 1025 vento: Nord O 7.4
20 Maggio 2022 21:50 tempo osservato: Sereno Sereno 20 56 1025 vento: Nord N 3.7
20 Maggio 2022 21:20 tempo osservato: Sereno Sereno 20 56 1025 vento: Nord N 5.5
20 Maggio 2022 20:50 tempo osservato: Sereno Sereno 21 52 1025 vento: Nord NO 13
20 Maggio 2022 20:20 tempo osservato: Sereno Sereno 22 49 1025 vento: Nord N/NO 16.7
20 Maggio 2022 19:50 tempo osservato: Sereno Sereno 22 49 1025 vento: Nord N/NO 14.8
20 Maggio 2022 19:20 tempo osservato: Sereno Sereno 23 43 1025 vento: Nord N/NO 16.7
20 Maggio 2022 18:50 tempo osservato: Sereno Sereno 24 50 1025 vento: Nord N/NO 13
20 Maggio 2022 18:20 tempo osservato: Sereno Sereno 24 53 1026 vento: Nord SO 7.4
20 Maggio 2022 17:50 tempo osservato: Sereno Sereno 24 50 1026 vento: Nord N 11.1
20 Maggio 2022 17:20 tempo osservato: Sereno Sereno 24 50 1026 vento: Nord S/SO 9.3
20 Maggio 2022 16:50 tempo osservato: Sereno Sereno 25 53 1026 vento: Nord N 9.3
20 Maggio 2022 16:20 tempo osservato: Sereno Sereno 25 53 1026 vento: Nord SO 13
20 Maggio 2022 15:50 tempo osservato: Sereno Sereno 25 50 1026 vento: Nord SO 14.8
20 Maggio 2022 15:20 tempo osservato: Sereno Sereno 25 50 1026 vento: Nord SO 16.7
20 Maggio 2022 14:50 tempo osservato: Sereno Sereno 25 44 1027 vento: Nord SO 18.5
20 Maggio 2022 14:20 tempo osservato: Sereno Sereno 25 38 1027 vento: Nord SO 16.7
20 Maggio 2022 13:50 tempo osservato: Sereno Sereno 25 38 1027 vento: Nord SO 13
20 Maggio 2022 13:20 tempo osservato: Sereno Sereno 25 38 1028 vento: Nord O/SO 16.7
20 Maggio 2022 12:50 tempo osservato: Sereno Sereno 25 29 1028 vento: Nord SO 16.7
20 Maggio 2022 12:20 tempo osservato: Sereno Sereno 25 29 1028 vento: Nord SO 13
20 Maggio 2022 11:50 tempo osservato: Sereno Sereno 24 27 1028 vento: Nord SO 13